Terminal Aerodrome Forecast
Issued by NWS Quad Cities IA IL

Home | Current Version | Previous Version | Text Only | Print | Product List | Glossary On
Versions: 1 2 3 4 5 6 7 8 9 10 11 12 13 14 15 16 17
000
FTUS43 KDVN 201700
TAFDBQ
TAF
KDBQ 201720Z 2018/2118 33012G17KT P6SM SCT035
     FM202300 34007KT P6SM SCT035
     FM210600 01006KT P6SM SKC
     FM211100 03005KT P6SM SCT020
     FM211500 05007KT P6SM SCT020=

USA.gov is the U.S. government's official web portal to all federal, state and local government web resources and services.